星链-35974(STARLINK-35974)

导读

STARLINK-35974是美国于2025年12月2日发射的星链卫星,隶属于SpaceX打造的星链星座项目。该星座旨在为全球用户提供覆盖偏远地区、海洋空域的高速低延迟互联网服务。作为低轨卫星星座的组成单元,它依托近地轨道部署优势,可降低通信延迟,持续拓展全球卫星互联网的覆盖范围与服务能力。

Basic Information
目录编号:
66862
目录名称:
STARLINK-35974
国际标识:
2025-281Q
轨道中心:
EARTH
卫星名称:
星链-35974
卫星全名:
星链-35974(STARLINK-35974)
卫星状态:
在轨 (已飞行193 天)
发射日期:
2025-12-02 UTC
国别 :
美国 (US)
星等 :
--
Orbit Information
数据来源 国际轨道数据 AOE轨道数据
星历时间 2026-06-12T14:59:22+0800
1天前
查看轨道信息
2026-06-10T05:00:00+0800
3天前
查看轨道信息
半长轴 6861.124km 6861.23km
偏心率 0.0001882 0.000195
轨道倾角 43.006° 43.002°
近地点辐角 279.445° 279.675°
升交点赤经 169.212° 182.858°
平近点角 80.619° 97.222°
近地点 481.695km 481.755km
远地点 484.279km 484.431km
周期 94.265分钟 94.268分钟
每日圈数 15.276008 15.275654
Detailed Information
固有亮度:
5
最大亮度:
2.5
卫星平台:
Starlink V1.0
覆盖范围:
全球
运营商:
太空探索技术公司
运营商所在国:
美国
制造商(研发单位):
太空探索技术公司
制造商所在国:
美国
使用方式:
暂无
Satellite Introduction
Starlink 计划是 SpaceX 推出的全球卫星互联网项目,通过发射低轨道卫星,为全球尤其是偏远地区提供高速、低延迟的互联网服务。自 2019 年起,Starlink 已部署数千颗卫星,旨在缩小全球数字鸿沟,推动互联网普及。该项目还为军事、航空等行业提供通信支持,带来广泛经济效益。
2D Orbit Map
3D Orbit Map
Orbit Altitude Analysis Chart
Orbit Inclination Analysis Chart
Orbit Comprehensive Analysis Chart
View Comprehensive Chart